Zurück zum Katalog

STARLINK-34879

AktivKommunikationVLEO
NORAD 65377·PAYLOAD·🇺🇸 United States

Gestartet Aug 28, 2025 von Cape Canaveral Space Force Station

Loading…

Nächste Überflüge (nächste 24 Stunden)

TLE

AktuellSource: CelesTrak SupGP

Epoche: Sep 14, 2026, 22:43 UTC

1 65377C 25190AC  26257.94701389 -.00006418  00000+0 -18968-3 0  2570
2 65377  53.1593   7.6713 0001321  82.3165 197.2756 15.34384944    15

Verfolge STARLINK-34879 in Echtzeit mit AllMySat

Download on the App Store